Regional Weather Roundup
Issued by NWS

Home | Current Version | Previous Version | Text Only | Print | Product List | Glossary On
Versions: 1 2 3 4 5 6 7 8 9 10 11 12 13 14 15 16 17 18 19 20 21 22 23 24 25 26 27 28 29 30 31 32 33 34 35 36 37 38 39 40 41 42 43 44 45 46 47 48 49 50
000
ASUS45 KBOI 220610
RWRID
WEATHER ROUNDUP FOR IDAHO
NATIONAL WEATHER SERVICE BOISE ID
1200 AM MDT FRI AUG 22 2014

NOTE: "FAIR" INDICATES FEW OR NO CLOUDS BELOW 12000 FEET
WITH NO SIGNIFICANT WEATHER AND/OR OBSTRUCTIONS TO VISIBILITY

IDZ012-014-220700-
SOUTHWEST IDAHO


CITY           SKY/WX    TMP DP  RH WIND       PRES   REMARKS
BOISE          PTCLDY    70  47  43 SE13      29.89S
CALDWELL       PTCLDY    63  39  42 E10       29.88S
MOUNTAIN HOME  MOCLDY    67  53  58 E15       29.91S
$$

IDZ016-017-220700-
SOUTHCENTRAL IDAHO


CITY           SKY/WX    TMP DP  RH WIND       PRES   REMARKS
BURLEY         CLOUDY    62  52  69 NW5       30.01F
JEROME         CLOUDY    62  53  72 E14       30.00R
TWIN FALLS     LGT RAIN  66  50  56 S8G18     29.99R
$$

IDZ019>023-220700-
SOUTHEAST IDAHO


CITY           SKY/WX    TMP DP  RH WIND       PRES   REMARKS
IDAHO FALLS    CLOUDY    57  52  83 E9        30.10F
POCATELLO      MOCLDY    59  50  72 NE7       30.08R
REXBURG        CLOUDY    54  49  83 E7        30.11F
$$

IDZ006-010-011-018-031-032-220700-
CENTRAL IDAHO MOUNTAINS


CITY           SKY/WX    TMP DP  RH WIND       PRES   REMARKS
MCCALL         PTCLDY    52  38  58 CALM      29.99S
HAILEY         CLOUDY    54  54 100 CALM      30.10S
STANLEY          N/A     50  40  68 SE6       30.10S
SALMON         CLOUDY    61  52  72 E7        30.01S
CHALLIS        MOCLDY    58  48  69 N7        30.02R
$$

IDZ002-004-006-007-026-220700-
NORTHERN IDAHO


CITY           SKY/WX    TMP DP  RH WIND       PRES   REMARKS
LEWISTON       PTCLDY    74  41  30 SW8       29.86R
LOWELL           N/A     63  55  75 N3        29.88
COEUR D`ALENE  CLOUDY    59  52  77 N15       29.95S
MULLAN PASS    MOCLDY    48  45  89 E5        30.09S
$$


USA.gov is the U.S. government's official web portal to all federal, state and local government web resources and services.